GFSFLT2_250_spd_141.txt.gz
Wind_Speed
54 55 54 52 51 52 51 53 54 48 52 49 49 42 41 38 39 36 32 33 38 36 38 42 46 43 43 41 35 31 35 29
56 57 56 54 54 54 58 59 58 57 52 51 49 47 43 41 40 33 36 39 35 39 39 42 46 43 40 40 31 30 34 28
60 59 60 61 58 58 59 59 58 57 53 51 46 47 48 48 44 44 40 38 37 35 40 42 44 42 39 38 33 28 31 31
62 64 63 61 60 59 60 59 57 54 53 55 51 52 53 49 45 40 41 43 37 38 39 36 42 42 42 39 36 35 33 33
64 65 64 63 60 61 60 59 60 61 57 52 55 54 58 57 55 52 48 43 44 41 37 39 33 37 39 39 42 37 35 36
64 65 66 63 62 61 62 60 57 55 55 52 55 59 59 57 55 55 54 48 45 43 42 39 35 33 36 38 44 48 41 36
65 64 63 62 60 60 61 62 60 58 54 54 54 56 58 61 55 58 56 54 50 49 45 39 40 40 38 40 40 38 37 37
62 62 61 61 62 63 62 63 64 64 64 69 63 62 63 60 61 60 62 61 60 54 52 58 44 43 45 40 39 39 37 38
65 66 66 66 67 67 68 69 70 71 74 74 73 72 69 65 64 63 63 64 66 64 60 58 49 48 45 45 41 42 34 41
67 68 68 69 70 71 72 74 77 80 81 81 79 77 76 75 75 73 68 68 69 68 66 66 58 52 52 53 52 44 32 43
71 73 74 76 78 80 81 83 86 88 89 89 88 87 84 83 83 81 79 76 74 77 76 72 65 61 62 57 66 62 48 51
78 80 82 84 85 85 86 88 91 93 94 95 95 95 95 94 90 90 89 86 84 82 80 77 71 75 73 65 69 67 63 59
89 88 87 88 90 93 94 96 99 100 101 102 102 102 100 97 96 93 91 92 92 88 86 79 78 80 84 76 75 67 69 72
91 93 96 99 101 103 106 107 107 108 107 106 106 105 103 100 98 98 95 95 94 95 94 88 81 83 87 90 83 76 75 81
97 100 102 104 107 111 112 110 108 106 105 103 106 103 103 101 98 97 99 98 96 97 94 94 88 87 89 95 95 84 84 81
103 108 111 113 113 113 113 109 104 98 96 95 95 97 99 99 97 95 95 98 99 97 97 95 93 89 91 97 100 98 93 90
108 110 114 116 118 116 111 101 95 90 89 88 88 89 91 91 94 94 92 91 94 96 96 94 93 92 95 94 105 107 101 102
110 113 115 116 113 107 98 93 87 83 80 78 78 79 82 82 83 85 86 87 87 89 92 94 95 94 99 98 97 107 110 108
114 114 113 105 98 93 87 81 76 73 70 70 69 70 70 69 70 71 74 76 79 78 81 86 90 93 96 101 101 101 115 115
114 108 99 90 85 79 73 68 65 62 60 60 58 55 56 55 56 58 59 61 63 65 65 71 76 80 90 97 106 105 109 120

GFSFLT2_250_spd_144.txt.gz
Wind_Speed
51 52 51 53 54 54 54 56 56 54 55 57 57 57 59 56 53 45 42 40 40 36 35 35 40 40 39 36 36 38 35 33
54 55 57 54 55 56 59 58 56 57 58 59 61 59 54 51 52 44 36 39 40 42 39 34 36 40 37 39 38 39 36 30
55 56 56 56 58 59 61 61 61 61 60 60 61 59 56 52 53 38 36 39 38 36 35 33 32 36 40 39 39 38 34 30
54 55 56 58 61 61 62 64 65 61 59 59 58 53 53 53 52 50 44 39 33 31 34 34 36 31 34 36 41 37 36 31
55 56 57 58 59 61 62 64 65 64 62 60 59 58 60 55 56 55 55 52 54 51 42 44 36 36 35 34 34 37 37 35
59 61 61 62 64 64 65 65 64 63 62 61 59 59 57 58 59 60 61 62 59 56 54 48 43 34 36 35 34 29 34 40
62 63 63 64 65 65 65 64 65 65 63 62 63 63 62 61 59 59 59 60 59 61 58 54 52 43 26 43 43 30 36 34
63 64 64 64 67 67 67 67 67 67 67 67 67 67 66 65 66 67 62 63 63 66 66 60 55 48 36 58 42 36 37 23
63 65 67 69 71 71 71 72 72 72 71 72 72 71 73 73 73 75 77 71 70 68 70 66 66 63 55 44 42 41 27 51
65 70 71 71 71 71 74 76 78 78 79 80 81 80 81 80 80 80 81 82 80 75 72 74 74 74 74 59 61 59 46 51
64 68 71 74 78 80 83 86 86 88 89 91 91 93 93 92 93 92 93 92 88 85 82 76 78 81 86 79 73 71 61 57
75 77 80 84 86 88 90 90 92 94 96 97 97 99 99 98 98 98 95 95 98 96 91 88 81 83 85 86 83 79 70 66
78 81 84 87 91 94 95 97 100 103 107 108 108 108 108 108 106 104 105 103 101 96 97 94 89 89 87 88 91 85 77 74
85 88 90 92 94 95 98 102 105 107 110 111 112 109 108 107 108 109 110 111 110 105 99 96 95 94 93 93 90 91 85 85
90 93 96 99 101 102 104 109 112 114 116 115 114 111 108 107 106 104 101 103 103 102 100 96 94 94 95 96 98 91 90 98
95 98 102 105 108 111 114 116 116 118 116 112 108 102 96 92 92 91 91 90 92 95 97 96 91 91 95 97 94 97 101 96
103 106 108 111 115 118 118 120 118 113 105 96 90 84 83 81 80 82 83 83 83 85 89 91 89 88 93 96 98 96 97 97
109 113 114 117 120 120 120 115 105 98 89 83 76 72 70 69 69 70 71 74 78 79 81 85 88 88 91 95 93 97 101 102
114 116 118 120 122 119 113 101 92 82 75 69 65 61 57 56 56 57 59 62 66 70 73 77 81 84 88 92 92 89 94 100
117 120 122 121 119 112 98 87 78 69 62 58 54 52 48 46 47 49 51 53 57 60 62 65 69 74 78 83 88 87 85 93

GFSFLT2_250_spd_150.txt.gz
Wind_Speed
47 49 48 48 47 49 52 55 56 55 56 55 55 56 57 57 55 55 56 55 54 53 50 48 44 42 37 38 32 31 24 31
49 49 50 50 49 51 53 54 54 54 55 54 54 56 59 60 62 60 58 55 54 56 52 48 43 43 38 39 36 29 25 24
50 51 52 51 50 51 53 54 55 56 56 55 56 58 59 61 61 59 58 57 55 54 54 53 46 42 40 38 36 32 25 27
50 50 50 51 52 52 54 55 58 60 61 60 61 61 61 60 59 58 59 60 59 58 53 54 52 47 47 40 37 37 27 27
49 50 51 52 54 56 58 60 61 62 63 64 65 65 64 63 61 58 56 57 59 59 57 53 56 54 51 53 49 43 38 29
51 52 54 56 59 61 60 60 59 59 59 58 59 60 62 63 63 65 63 62 61 61 60 59 57 58 56 54 56 54 49 40
53 55 57 59 61 60 56 55 57 56 58 58 62 65 67 69 70 69 69 68 68 65 64 63 62 61 61 64 61 61 56 50
52 52 53 53 53 53 53 53 53 56 60 63 65 70 71 72 73 74 74 75 74 74 71 69 68 67 65 65 69 71 67 60
46 49 49 51 50 53 55 55 57 63 67 69 70 71 74 76 79 81 82 82 82 81 80 79 76 72 71 71 72 75 76 75
51 53 53 54 57 59 59 61 65 72 74 77 80 81 83 85 86 86 87 87 87 87 86 85 85 82 78 78 76 77 78 76
54 54 53 54 59 61 64 72 75 79 82 85 87 90 92 95 96 97 98 98 97 93 92 93 92 89 88 85 84 84 82 81
53 56 60 62 67 70 76 79 83 86 89 90 95 99 99 100 100 101 103 106 106 106 102 97 95 97 93 95 92 90 90 85
63 63 67 70 72 77 82 83 89 92 95 98 102 105 106 108 109 110 109 107 110 110 110 105 100 99 100 95 99 98 97 95
68 72 73 75 77 80 85 90 93 97 103 106 107 110 114 115 118 113 104 104 105 104 102 102 104 103 101 100 96 104 103 100
73 78 80 82 86 88 93 95 98 104 107 110 111 118 116 117 119 109 100 98 94 89 89 91 93 96 95 93 96 100 103 109
78 81 84 86 90 94 97 101 106 109 113 114 119 121 114 110 106 94 85 84 79 75 75 74 78 83 86 88 93 94 101 104
81 85 88 92 95 99 103 107 111 112 117 120 123 113 105 98 84 77 70 68 66 63 61 61 65 69 74 78 85 91 97 102
85 89 91 95 99 104 108 111 114 117 122 124 113 102 91 80 71 62 57 54 54 52 49 49 53 57 61 67 73 81 92 98
93 94 98 102 105 110 114 114 117 121 123 115 102 89 80 71 62 55 50 46 45 44 44 44 45 47 51 58 65 70 81 91
97 99 103 107 109 112 114 119 121 129 114 102 88 79 69 62 56 48 42 39 38 38 37 38 39 41 42 47 55 61 68 78

GFSFLT2_250_spd_156.txt.gz
Wind_Speed
44 46 48 50 50 48 47 47 49 51 51 50 49 48 49 50 49 50 49 49 50 49 49 50 50 50 49 47 47 45 43 41
44 45 44 48 51 49 48 51 52 53 54 52 51 52 53 54 55 55 56 56 56 54 54 54 54 54 52 50 47 45 44 41
46 46 48 50 51 51 52 52 52 52 51 52 53 54 55 58 58 59 59 57 56 54 50 52 54 54 54 54 53 49 42 41
47 48 49 49 49 49 51 49 50 51 52 53 55 55 53 54 54 54 54 53 51 50 49 50 52 54 56 55 53 53 50 46
47 47 48 47 48 48 48 49 49 49 49 50 48 48 49 48 48 49 51 52 51 52 51 54 56 57 59 58 58 56 55 50
44 45 46 47 45 45 46 46 44 45 47 49 49 50 52 51 55 56 56 56 58 62 63 64 64 63 61 62 61 60 58 56
40 41 43 45 45 44 43 46 48 49 53 54 54 56 57 60 60 62 63 64 64 66 68 68 67 68 68 67 66 66 65 63
39 38 40 42 44 45 47 50 51 51 52 54 54 56 58 61 64 65 67 68 68 70 71 73 73 74 73 71 71 71 69 68
42 43 43 45 47 49 51 53 50 55 58 58 58 60 63 66 68 68 70 73 74 77 78 79 80 81 80 80 79 78 77 74
45 46 46 48 51 54 55 56 58 62 63 66 67 69 71 71 74 76 78 79 81 82 82 81 82 82 85 86 89 88 85 82
47 49 51 53 55 55 57 61 64 67 70 71 72 74 72 74 77 78 81 83 85 86 83 88 89 92 93 96 98 96 95 94
54 53 54 56 56 57 60 64 66 70 74 76 78 77 77 76 77 81 86 88 90 89 93 96 99 100 102 103 105 107 106 103
56 57 59 60 63 63 66 70 71 70 75 78 80 80 83 83 85 88 91 94 93 101 101 104 110 111 111 110 109 111 111 107
60 62 64 67 69 70 74 76 76 77 79 82 84 84 86 89 92 94 93 98 101 108 105 105 111 111 102 95 93 96 97 100
67 68 71 73 75 78 82 82 83 84 86 86 86 88 90 93 93 98 103 106 110 104 102 102 92 89 85 82 82 79 82 86
72 75 75 78 81 84 86 87 87 88 89 89 91 93 93 97 102 108 107 106 103 91 91 82 79 77 73 67 68 67 66 73
77 79 82 85 88 89 90 91 90 92 93 95 97 95 102 100 111 116 102 94 89 84 75 71 68 64 60 56 54 58 59 63
84 86 89 92 93 92 94 93 95 97 97 99 101 100 106 110 124 105 91 89 82 74 67 63 56 50 48 45 44 45 49 54
89 92 96 96 94 97 97 99 101 102 101 101 103 110 116 121 117 93 89 81 75 65 60 51 46 43 40 38 38 38 41 45
94 98 97 97 99 101 100 104 105 104 104 104 109 120 124 119 99 92 83 75 65 57 48 42 41 39 37 36 35 33 36 39

GFSFLT2_250_spd_159.txt.gz
Wind_Speed
38 40 42 42 41 44 47 47 47 48 49 47 49 47 46 47 45 46 47 48 47 48 48 47 47 47 47 47 46 46 45 44
40 41 42 44 46 47 49 49 51 50 49 49 49 47 47 47 48 50 49 50 48 49 48 48 48 49 49 49 48 49 49 47
43 41 44 45 46 47 48 49 50 52 53 54 55 53 52 51 50 48 49 47 44 45 45 45 47 45 45 46 46 46 45 44
43 42 44 45 44 44 45 45 47 49 50 49 47 46 46 46 47 47 50 49 48 49 49 50 48 48 45 47 48 47 48 48
43 42 40 39 38 40 40 40 43 46 48 48 47 47 47 48 47 48 49 52 54 53 54 56 55 57 57 59 57 55 55 55
44 42 41 36 34 37 36 35 39 41 42 44 45 46 48 49 51 52 52 52 54 56 59 59 60 61 62 62 64 64 62 60
44 42 39 33 35 35 37 39 41 41 43 44 45 48 50 52 53 55 56 59 61 62 63 64 63 63 65 66 68 68 68 67
46 42 38 37 39 38 38 40 44 46 46 46 48 52 59 62 62 60 62 64 65 65 65 68 69 71 71 73 74 73 73 73
46 41 42 40 43 41 40 44 44 41 44 46 50 53 56 63 64 65 70 72 72 72 71 70 69 73 75 78 77 80 81 80
44 43 47 47 47 48 44 48 49 49 52 53 52 58 59 61 66 70 72 74 75 74 77 77 81 80 82 86 86 89 89 87
48 50 53 52 51 51 53 55 54 56 56 57 60 65 68 69 69 70 74 77 80 80 82 84 85 87 89 93 92 93 96 97
54 57 56 53 54 56 58 59 61 62 64 66 68 71 73 74 74 75 79 83 84 85 85 86 90 89 97 99 102 108 107 108
57 60 59 60 63 62 63 65 66 67 68 72 76 79 79 81 80 82 84 86 88 93 90 93 97 102 103 108 113 116 117 116
65 65 66 66 67 68 71 72 73 74 77 81 84 87 87 88 87 88 89 89 91 87 96 106 105 103 108 108 102 105 103 97
69 70 70 69 71 73 75 77 79 80 84 88 90 92 90 91 92 93 91 92 93 95 106 107 99 97 97 91 86 86 85 81
70 71 71 73 75 77 80 81 84 85 89 93 95 94 95 97 96 99 96 100 99 102 109 97 92 89 83 75 68 65 68 75
74 74 75 78 79 81 85 86 89 92 96 101 100 98 98 100 102 95 102 103 107 112 100 89 83 75 70 61 58 54 55 60
76 77 80 82 84 86 88 91 95 98 102 102 102 100 101 106 98 107 113 112 114 104 89 82 73 65 58 54 50 47 43 44
80 81 83 85 86 88 92 96 99 103 104 104 101 101 106 103 107 116 115 115 110 91 80 72 64 56 51 45 42 38 37 38
85 87 90 89 91 95 98 101 104 104 102 101 102 105 111 113 115 116 115 110 95 80 71 64 55 48 44 39 34 33 32 33

GFSFLT2_250_spd_162.txt.gz
Wind_Speed
38 38 39 41 40 39 42 43 43 41 40 41 42 43 43 45 44 46 44 42 43 42 42 43 43 43 43 43 44 44 45 45
40 39 38 42 39 39 39 39 44 41 40 40 39 40 40 42 41 39 38 36 37 37 39 39 40 39 40 40 39 41 44 44
41 40 40 41 38 39 40 38 34 34 34 35 35 37 37 37 38 38 37 38 37 38 40 42 41 44 43 44 45 43 42 44
41 39 41 39 40 39 36 33 32 31 29 29 29 31 34 35 35 36 39 40 43 44 44 44 45 45 47 48 49 50 48 47
42 43 43 41 40 43 38 35 29 29 30 32 31 31 32 33 33 36 39 42 43 43 45 47 49 50 51 54 56 56 57 57
44 44 44 43 43 42 39 36 35 34 34 34 34 35 34 35 38 40 46 51 50 52 51 51 54 56 57 58 59 61 61 63
46 46 45 42 44 42 39 39 38 38 38 40 39 39 39 40 42 45 46 47 54 55 58 62 64 64 63 63 63 65 68 69
49 46 46 46 46 44 41 42 44 43 43 45 46 46 45 46 47 48 51 55 56 57 61 64 68 69 69 71 70 72 72 74
51 47 47 48 48 47 46 47 47 48 48 50 51 51 51 51 52 55 58 60 63 64 63 64 67 73 77 80 80 81 83 82
49 49 49 50 50 51 50 54 52 52 52 54 56 55 55 56 60 62 65 68 72 73 75 71 70 72 78 82 85 88 86 89
52 51 52 48 48 50 53 56 57 58 60 61 60 61 62 64 67 70 73 74 77 81 81 77 77 80 84 83 88 86 94 92
55 54 52 48 51 55 60 62 63 63 64 65 65 66 68 71 74 76 81 83 86 87 86 86 87 87 88 85 91 95 94 105
58 55 54 56 56 62 64 66 68 68 69 70 69 71 74 78 80 83 87 89 93 92 90 91 95 92 82 95 94 98 106 113
56 54 55 56 60 61 64 69 70 71 72 74 75 77 81 82 84 89 91 96 95 96 96 94 91 92 92 94 97 100 109 112
57 58 60 63 63 65 68 72 73 74 75 77 80 83 85 86 90 93 96 96 96 94 93 95 94 95 94 94 94 99 93 92
60 63 66 68 69 73 75 71 72 76 78 81 84 87 90 93 95 95 93 94 93 93 101 96 95 92 90 90 84 77 73 74
66 71 73 71 73 75 75 76 78 81 83 86 88 91 95 96 98 97 93 95 90 103 105 98 98 90 86 76 70 65 58 55
73 71 73 76 77 77 78 80 82 84 85 90 93 95 97 98 96 91 98 102 105 113 104 100 91 83 76 65 62 56 47 47
74 75 76 76 75 78 80 82 84 87 90 93 94 97 95 91 94 93 104 105 114 110 108 97 85 73 67 59 54 49 43 42
73 74 74 77 80 80 81 85 87 89 93 92 91 91 92 92 99 104 110 112 117 111 98 90 79 67 63 55 48 43 38 37

GFSFLT2_250_spd_165.txt.gz
Wind_Speed
52 52 47 40 37 36 37 38 37 39 38 36 31 30 27 28 29 30 29 29 27 28 30 33 33 34 35 35 35 35 37 38
54 51 46 42 39 36 36 35 38 36 36 32 26 24 25 24 22 23 24 25 27 29 29 30 32 35 36 37 36 38 40 41
55 52 47 43 40 37 37 35 37 38 34 27 24 22 22 25 26 26 26 25 26 27 29 32 34 37 38 41 41 42 43 44
55 53 49 45 42 39 40 38 38 36 33 30 29 28 28 28 28 30 28 28 31 33 36 36 36 37 39 42 42 45 48 49
54 54 50 47 44 41 41 38 39 37 37 34 34 34 34 35 36 35 36 38 37 37 39 42 43 45 45 47 49 51 52 52
58 56 52 48 46 46 44 42 40 39 39 36 39 39 39 40 39 41 40 41 43 43 45 49 51 50 51 53 55 59 63 65
57 55 52 50 48 49 49 47 43 41 41 40 41 43 44 44 44 46 47 48 49 50 50 52 52 55 58 59 62 64 67 70
56 54 53 52 51 51 49 49 47 45 44 48 47 48 49 48 48 51 52 52 53 55 58 59 62 63 66 67 71 72 71 71
57 51 57 56 53 52 51 52 47 45 46 48 51 51 51 52 55 57 55 58 58 60 63 66 68 71 74 76 80 81 83 81
54 52 54 55 56 56 55 54 53 46 47 50 56 56 58 60 62 61 59 60 63 66 69 72 72 75 81 84 87 89 89 87
55 53 55 58 57 57 57 55 54 50 51 56 59 59 63 66 67 66 65 67 70 73 77 78 79 83 85 90 94 93 92 92
56 54 54 56 55 57 59 59 55 55 55 56 58 61 69 72 69 69 71 74 77 79 81 82 85 88 92 94 95 96 91 94
56 54 54 54 55 58 60 55 56 57 56 59 64 70 74 73 70 72 76 80 82 85 87 89 91 94 95 91 91 85 91 97
58 55 54 51 56 58 57 57 58 61 68 69 70 74 78 76 78 80 83 85 87 91 94 96 100 101 97 89 79 90 92 101
60 59 59 57 59 59 59 62 65 68 69 72 77 79 80 80 82 84 85 88 92 95 97 99 97 93 92 92 96 94 89 102
62 62 62 61 61 62 64 69 72 74 75 78 79 81 82 81 82 84 88 90 92 89 87 88 91 90 88 89 92 94 90 83
64 65 66 69 69 70 72 74 77 78 77 80 85 82 82 83 85 87 90 91 88 90 93 96 89 90 90 95 90 87 83 74
65 67 68 69 71 71 72 73 75 78 81 83 82 85 88 88 91 94 97 95 92 93 96 101 101 99 102 91 82 78 72 64
67 68 68 67 67 70 74 76 82 81 83 86 89 91 91 92 94 95 95 96 96 98 102 105 107 105 95 84 77 70 63 55
68 68 70 73 76 78 79 82 81 85 90 90 91 92 96 101 105 102 105 105 97 104 109 112 109 107 91 78 68 62 54 48

GFSFLT2_250_spd_168.txt.gz
Wind_Speed
54 55 55 54 54 50 45 40 35 33 34 33 36 35 28 22 23 26 29 29 30 30 31 28 28 31 32 33 34 34 34 35
53 54 56 56 54 51 46 41 37 35 34 34 34 31 25 21 22 21 22 24 26 28 28 28 29 31 31 31 31 32 34 37
53 54 56 56 58 49 47 43 40 36 35 36 36 32 30 29 28 26 27 27 28 30 28 29 32 35 35 35 33 36 37 39
56 58 56 54 55 51 48 44 42 39 37 36 34 34 33 32 31 32 32 34 33 33 36 39 40 40 40 39 40 42 43 43
57 59 55 54 54 51 48 45 44 41 40 40 39 35 36 37 36 36 39 39 39 40 41 43 45 45 44 45 47 49 47 48
57 59 56 55 55 52 48 46 46 44 44 42 42 41 39 39 40 40 42 42 42 44 45 48 51 49 50 51 54 54 56 57
57 57 56 54 54 51 48 48 49 48 47 48 45 43 40 42 44 46 45 45 46 48 52 54 54 55 55 57 58 61 62 65
55 54 55 56 53 49 46 50 52 51 51 54 50 45 42 41 43 47 52 52 52 52 55 56 59 61 61 62 64 67 70 72
55 56 56 57 53 52 50 51 51 54 58 56 55 52 44 44 47 50 53 51 54 57 59 61 62 64 66 69 71 74 76 77
57 57 57 56 55 53 51 51 57 59 56 56 57 55 53 50 49 51 55 57 61 65 68 67 66 66 70 74 77 80 82 86
57 57 55 55 54 54 52 53 52 55 57 57 59 56 56 54 55 55 62 64 67 72 73 71 72 75 77 81 85 87 90 95
60 57 55 53 55 55 54 51 53 55 58 58 55 54 56 57 61 63 64 69 72 77 78 77 77 81 83 85 90 92 96 99
60 58 57 56 55 55 55 54 50 52 56 54 54 56 58 61 65 67 69 74 79 85 83 83 84 81 85 90 97 101 99 98
61 59 59 57 58 57 58 58 58 58 57 57 56 58 62 67 70 76 79 82 85 86 87 88 86 87 93 96 98 100 98 102
62 59 59 58 58 61 62 63 63 64 64 65 64 65 70 74 78 80 84 86 89 90 89 91 94 100 103 106 109 112 100 98
61 59 60 58 59 58 59 61 63 66 65 66 69 73 75 79 79 81 85 91 91 90 95 97 100 104 110 107 89 93 91 83
62 61 62 61 62 63 64 64 67 65 66 70 74 73 75 78 82 86 93 90 92 96 98 99 106 105 109 105 98 96 92 88
61 60 61 62 62 65 65 65 65 66 66 66 73 78 81 84 90 90 90 93 96 98 101 107 105 108 103 107 102 92 89 88
60 61 62 65 65 66 66 65 63 62 68 72 78 83 86 86 88 92 94 97 99 105 106 104 107 102 97 104 102 97 90 85
58 59 60 59 58 61 62 66 71 75 79 80 83 87 89 89 92 96 99 102 106 104 105 106 104 97 107 108 104 96 86 74

GFSFLT2_250_spd_171.txt.gz
Wind_Speed
50 53 53 53 53 52 52 49 46 42 39 36 35 34 33 33 30 28 25 24 27 30 32 32 33 33 33 34 34 35 35 35
51 51 51 51 53 52 51 49 44 44 39 35 34 34 33 33 32 30 26 26 23 25 26 26 30 30 27 30 33 35 36 36
49 48 48 49 51 52 51 48 48 44 38 36 34 33 32 34 33 32 31 29 28 29 31 31 30 31 36 36 38 40 41 42
48 49 48 49 50 53 50 47 46 45 41 39 35 33 33 34 36 36 35 33 34 35 34 35 38 39 40 42 45 45 45 46
46 41 44 43 47 52 51 46 47 46 42 41 39 39 36 35 38 40 37 36 40 40 40 39 40 42 44 47 49 50 50 51
45 47 45 46 42 49 51 47 46 46 40 41 44 45 42 41 42 43 43 41 41 44 46 46 47 45 46 49 51 52 54 56
50 50 47 51 46 47 51 53 49 46 40 42 42 43 44 48 48 45 46 44 42 43 46 48 46 46 50 53 55 56 59 61
55 53 53 53 53 50 50 54 55 49 43 44 44 47 52 55 53 50 47 48 44 44 49 50 53 55 55 59 61 61 65 67
60 58 59 60 63 55 50 55 56 52 47 44 46 48 51 53 53 53 53 52 49 51 54 56 58 61 63 65 67 73 73 73
71 70 67 65 61 56 49 55 54 52 50 49 47 50 49 49 53 56 55 49 49 49 55 60 64 65 67 70 75 77 79 80
70 70 70 69 56 51 49 54 55 53 53 50 48 48 52 52 52 52 51 49 52 58 61 63 64 67 72 79 81 82 84 85
78 72 59 52 50 50 52 54 55 55 55 54 50 50 50 51 53 51 51 52 57 60 62 63 69 76 82 83 83 88 87 87
69 64 61 56 59 55 55 55 55 57 58 56 54 54 55 56 55 54 56 56 59 64 67 73 77 81 84 86 90 92 92 94
67 65 61 56 59 56 52 56 57 57 58 59 57 60 61 62 64 64 64 62 65 70 76 79 79 81 84 91 95 95 99 102
62 60 54 58 57 53 54 58 57 56 57 57 58 59 60 62 63 63 64 68 72 76 78 78 81 86 91 92 93 97 101 110
58 58 57 59 57 57 59 58 57 58 59 58 59 61 62 63 64 66 70 73 74 76 80 85 88 90 93 95 100 102 109 112
54 55 58 55 54 56 58 57 58 62 61 62 64 64 66 67 69 71 75 76 77 81 86 90 93 94 97 102 106 112 115 108
54 58 58 56 57 58 55 57 60 63 64 66 66 67 68 70 72 77 76 78 81 86 90 96 96 100 105 108 115 105 102 93
53 56 60 58 55 55 53 57 61 63 65 66 67 69 68 69 72 78 81 82 86 91 94 98 102 105 111 114 104 101 97 95
58 59 60 59 61 60 59 60 62 62 63 63 63 66 71 75 76 80 84 87 91 94 97 101 108 112 114 106 103 104 100 97

GFSFLT2_250_spd_174.txt.gz
Wind_Speed
51 49 49 45 46 44 46 45 47 48 41 38 37 34 32 31 32 32 28 26 27 24 24 24 23 25 26 29 31 26 26 27
53 52 49 44 43 42 43 45 46 46 44 38 35 34 33 31 30 31 29 29 28 27 26 28 29 28 28 27 28 30 31 33
54 48 43 37 38 42 39 42 45 47 45 38 37 36 35 32 33 31 30 31 31 32 29 30 33 33 32 33 35 36 37 35
49 47 41 43 39 40 40 41 41 47 49 42 39 37 37 35 35 35 34 33 34 35 36 34 36 36 36 36 37 37 39 39
48 46 43 38 43 44 45 46 42 47 48 51 46 41 35 39 41 40 38 38 37 40 41 42 41 42 43 45 44 41 41 43
46 41 43 38 42 49 52 52 51 52 52 53 48 45 41 38 37 39 42 43 43 43 43 45 45 44 46 47 48 45 47 49
45 42 40 42 47 52 56 57 55 55 50 52 50 47 43 41 42 40 45 49 50 48 47 48 48 49 48 49 52 50 52 54
49 47 46 49 55 60 61 58 57 57 51 49 51 50 45 41 42 42 44 47 50 50 51 52 52 52 56 58 58 57 58 61
52 50 55 60 65 66 65 60 57 49 48 49 50 51 48 44 43 45 44 44 47 51 54 55 53 52 55 58 61 62 65 65
53 56 58 63 66 69 65 63 55 53 52 51 52 52 50 47 46 46 46 47 47 50 51 53 53 52 55 59 62 65 65 67
59 63 64 69 71 72 70 61 58 53 55 51 52 54 51 50 48 48 49 49 49 50 52 53 54 57 60 64 67 66 66 72
69 70 70 73 73 67 62 59 58 55 57 52 52 55 52 52 53 51 50 51 52 54 56 55 57 64 66 66 67 68 75 81
76 77 78 74 64 57 61 56 58 57 56 51 50 53 54 54 55 53 54 56 59 59 60 63 61 65 63 66 72 78 81 80
77 79 74 68 61 57 55 54 57 56 55 50 51 54 56 55 54 55 56 56 57 58 60 63 65 68 72 75 79 80 81 86
77 73 67 62 57 57 53 53 58 59 53 50 53 54 56 55 54 55 57 59 63 65 67 68 71 73 76 78 79 83 89 94
74 70 65 61 57 52 50 53 57 52 50 53 55 55 55 54 57 61 64 65 65 67 69 71 73 73 77 81 84 88 91 99
73 70 66 59 57 56 53 53 55 53 54 56 57 56 57 58 61 64 68 70 71 73 72 71 73 79 80 83 85 90 96 99
71 67 64 59 53 55 50 50 53 52 54 57 59 59 59 60 63 67 68 71 72 74 75 74 72 79 84 86 90 94 97 105
68 65 64 64 57 57 57 52 53 55 57 55 56 57 58 58 60 64 68 70 69 69 71 77 82 83 87 92 95 100 107 110
68 69 72 71 69 61 62 60 59 57 57 60 62 61 62 63 61 61 62 68 73 79 82 79 85 90 94 98 103 106 106 105